Home   Weather   Bregenz   Past weeks

Flag for Austria Past Weather in Bregenz, Vorarlberg, Austria — Yesterday and Last 2 Weeks

Now
42 °F

Quite cool.


Feels Like: 42 °F
Forecast: 35 / 64 °F
Wind: 1 mph from South

Location: Bregenz

Current Time: Apr 30, 2017 at 12:00:13 am

Latest Report: Apr 29, 2017 at 11:00 pm


Visibility: N/A

Pressure: 30.02 "Hg

Humidity: 81%

Dew Point: 36 °F

Location of BregenzLocation

Past Weather in Bregenz — Graph

°F

Bregenz Temperature Yesterday

Maximum temperature yesterday: 57 °F (at 6:00 pm)
Minimum temperature yesterday: 34 °F (at 7:00 am)
Average temperature yesterday: 44 °F

High & Low Weather Summary for the Past Weeks

 TemperatureHumidityPressure
High65 °F (Apr 24, 6:00 pm)97% (Apr 19, 3:00 am)30.58 "Hg (Apr 19, 3:00 am)
Low29 °F (Apr 20, 6:00 am)13% (Apr 21, 6:00 pm)29.74 "Hg (Apr 26, 1:00 am)
Average43 °F76%30.15 "Hg
* Reported Apr 14 10:00 pm — Apr 29 10:00 pm, Bregenz, Weather by CustomWeather, © 2017

Note: Actual official high and low records may vary slightly from our data, if they occured in-between our weather recording intervals... More about our weather records

Advertising

Bregenz Weather History for the Previous 24 Hours

Scroll right to see more
 ConditionsComfort  
Time TempWeatherWind HumidityBarometerVisibility
10:00 pm
Sat, Apr 29
45 °FCool.No wind70%30.01 "HgN/A
9:00 pm48 °FCool.3 mph59%30.00 "HgN/A
8:00 pm51 °FCool.1 mph61%29.99 "HgN/A
7:00 pm55 °FRefreshingly cool.2 mph44%29.99 "HgN/A
6:00 pm57 °FRefreshingly cool.3 mph40%30.00 "HgN/A
5:00 pm56 °FRefreshingly cool.2 mph44%30.00 "HgN/A
4:00 pm54 °FCool.3 mph46%30.02 "HgN/A
3:00 pm52 °FCool.3 mph50%30.04 "HgN/A
2:00 pm50 °FPassing clouds.2 mph54%30.06 "Hg9 mi
1:00 pm51 °FCool.2 mph52%30.07 "HgN/A
12:00 pm48 °FCool.1 mph56%30.10 "HgN/A
11:00 am45 °FPassing clouds.2 mph61%30.12 "Hg9 mi
10:00 am42 °FQuite cool.5 mph70%30.14 "HgN/A
9:00 am40 °FQuite cool.2 mph83%30.14 "HgN/A
8:00 am35 °FSunny.2 mph94%30.17 "Hg7 mi
7:00 am34 °FPassing clouds.6 mph94%30.16 "Hg7 mi
6:00 am36 °FChilly.5 mph87%30.16 "HgN/A
5:00 am35 °FChilly.5 mph95%30.16 "HgN/A
4:00 am35 °FChilly.2 mph96%30.16 "HgN/A
3:00 am35 °FChilly.2 mph94%30.16 "HgN/A
2:00 am37 °FChilly.5 mph91%30.15 "HgN/A
1:00 am36 °FChilly.5 mph93%30.15 "HgN/A
12:00 am36 °FChilly.1 mph97%30.15 "HgN/A
Weather by CustomWeather, © 2017

See weather overviewHow to use our weather pages